User: anonymous   Login
Location: East Fork Observatory
(32.9757°N, 94.4485°W)
Time: 01:56:31
(UTC-06:00)
Language:

JY1SAT - Orbit

View from above orbital plane
View from above orbital plane
View from above satellite
View from above satellite

Ground track
Ground track

The orbit data is extracted from the following two-line orbital elements,

1 43803U 18099AX  19350.04542487 -.00000173  00000-0 -10400-4 0  9999
2 43803  97.7257  59.5956 0016610  87.6657 272.6466 14.95381069 56379
Epoch (UTC): 16 December 2019 01:05:24
Eccentricity: 0.0016610
inclination: 97.7257°
perigee height: 569 km
apogee height: 593 km
right ascension of ascending node: 59.5956°
argument of perigee: 87.6657°
revolutions per day: 14.95381069
mean anomaly at epoch: 272.6466°
orbit number at epoch: 5637

The dashed part of the orbit path shows where the satellite is in the earth's shadow,  

DLR